Flag for U.S.A. Weather past 2 weeks in Costa Mesa, California, U.S.A.

Now
77 °F

Clear.


Feels Like: 78 °F
Forecast: 67 / 86 °F
Wind: No wind

Location: John Wayne Airport-Orange County Airport

Current Time: Aug 28, 2014 at 2:23:42 AM

Latest Report: Aug 28, 2014 at 1:53 AM


Visibility: 10 mi

Pressure: 29.99 "Hg

Humidity: 44%

Dew point: 53 °F

Location of Costa MesaLocation

Historic Weather in Costa Mesa — Graph

°F

Costa Mesa temperature yesterday

Maximum temperature yesterday: 92 °F (at 11:53 AM)
Minimum temperature yesterday: 70 °F (at 2:53 AM)
Average temperature yesterday: 80 °F

Past Weeks' High & Low Weather Summary

 TemperatureHumidityPressure
High92 °F (Aug 27, 11:53 AM)82% (Aug 15, 5:53 AM)30.03 "Hg (Aug 15, 5:53 AM)
Low68 °F (Aug 14, 2:53 AM)23% (Aug 27, 4:53 PM)29.79 "Hg (Aug 18, 4:53 PM)
Average75 °F62%29.92 "Hg
* Reported Aug 13 12:53 AM — Aug 28 12:53 AM, Costa Mesa, Weather by CustomWeather, © 2014

Note: Actual official high and low records may vary slightly from our data, if they occured in-between our weather recording intervals... More about our weather records

Advertising

Costa Mesa weather history for previous 24 hours

 ConditionsComfort  
Time TempWeatherWind HumidityBarometerVisibility
12:53 AM
Aug 28
77 °FClear.No wind48%30.01 "Hg10 mi
11:53 PM
Aug 27
76 °FClear.No wind67%30.01 "Hg10 mi
10:53 PM77 °FClear.No wind62%30.00 "Hg10 mi
9:53 PM76 °FClear.No wind67%30.00 "Hg10 mi
8:53 PM77 °FClear.3 mph60%29.99 "Hg10 mi
7:53 PM80 °FSunny.8 mph54%29.97 "Hg10 mi
6:53 PM84 °FSunny.12 mph38%29.96 "Hg10 mi
5:53 PM90 °FSunny.6 mph24%29.95 "Hg10 mi
4:53 PM90 °FPassing clouds.7 mph23%29.96 "Hg10 mi
3:53 PM89 °FPassing clouds.8 mph24%29.97 "Hg10 mi
2:53 PM88 °FPassing clouds.10 mph26%29.99 "Hg10 mi
1:53 PM89 °FSunny.10 mph32%30.00 "Hg10 mi
12:53 PM89 °FSunny.9 mph35%30.00 "Hg10 mi
11:53 AM92 °FSunny.5 mph32%30.01 "Hg10 mi
10:53 AM86 °FSunny.No wind37%30.02 "Hg10 mi
9:53 AM82 °FSunny.3 mph46%30.03 "Hg10 mi
8:53 AM77 °FSunny.No wind56%30.02 "Hg10 mi
7:53 AM74 °FPassing clouds.No wind67%30.01 "Hg8 mi
6:53 AM70 °FPassing clouds.No wind76%30.01 "Hg8 mi
5:53 AM70 °FClear.No wind79%30.00 "Hg7 mi
4:53 AM70 °FClear.No wind79%29.99 "Hg6 mi
3:53 AM70 °FClear.No wind79%29.99 "Hg5 mi
2:53 AM70 °FClear.No wind79%29.99 "Hg6 mi
Weather by CustomWeather, © 2014

See weather overviewHow to use our weather pages